Home   Weather   33°00'N, 96°41'W   Past weeks
Flag for USA

Past Weather in 33°00'N, 96°41'W, USA — Yesterday and Last 2 Weeks

Now
58 °F

Clear.


Feels Like: 54 °F
Forecast: 69 / 53 °F
Wind: 17 mph from North

Location: McKinney Municipal Airport

Current Time: Oct 16, 2019 at 5:30:47 am

Latest Report: Oct 16, 2019 at 4:53 am


Visibility: 10 mi

Pressure: 30.08 "Hg

Humidity: 46%

Dew Point: 37 °F

Location of 33°00'N, 96°41'WLocation

Past Weather in 33°00'N, 96°41'W — Graph

°F

33°00'N, 96°41'W Temperature Yesterday

Maximum temperature yesterday: 86 °F (at 4:53 pm)
Minimum temperature yesterday: 66 °F (at 11:28 pm)
Average temperature yesterday: 74 °F

High & Low Weather Summary for the Past Weeks

 TemperatureHumidityPressure
High96 °F (Oct 6, 2:53 pm)97% (Oct 15, 3:53 am)30.34 "Hg (Oct 15, 3:53 am)
Low35 °F (Oct 12, 5:53 am)17% (Oct 12, 1:53 pm)29.72 "Hg (Oct 10, 6:53 pm)
Average72 °F62%30.01 "Hg
* Reported Oct 1 3:53 am — Oct 16 3:53 am, 33°00'N, 96°41'W. Weather by CustomWeather, © 2019

Note: Actual official high and low records may vary slightly from our data, if they occured in-between our weather recording intervals... More about our weather records

Advertising

33°00'N, 96°41'W Weather History for the Previous 24 Hours

Scroll right to see more
 ConditionsComfort  
Time TempWeatherWind HumidityBarometerVisibility
3:53 am
Wed, Oct 16
60 °FClear.15 mph46%30.06 "Hg10 mi
2:53 am62 °FClear.21 mph48%30.06 "Hg10 mi
1:53 am64 °FOvercast.23 mph47%30.05 "Hg10 mi
12:53 am65 °FOvercast.16 mph47%30.04 "Hg10 mi
11:53 pm
Tue, Oct 15
66 °FMostly cloudy.20 mph49%30.01 "Hg10 mi
11:28 pm66 °FPartly cloudy.18 mph63%30.01 "Hg10 mi
10:53 pm70 °FMostly cloudy.17 mph79%29.97 "Hg10 mi
10:39 pm71 °FOvercast.21 mph81%29.96 "Hg10 mi
9:53 pm73 °FPassing clouds.15 mph79%29.91 "Hg10 mi
8:53 pm72 °FPassing clouds.12 mph73%29.87 "Hg10 mi
8:05 pm77 °FLight rain. Partly cloudy.No wind60%29.85 "Hg10 mi
7:53 pm78 °FThundershowers. Partly cloudy.12 mph56%29.82 "Hg10 mi
6:53 pm80 °FClear.No wind67%29.80 "Hg10 mi
5:53 pm84 °FSunny.8 mph59%29.78 "Hg10 mi
4:53 pm86 °FSunny.13 mph57%29.78 "Hg10 mi
3:53 pm85 °FSunny.14 mph59%29.80 "Hg10 mi
2:53 pm83 °FSunny.15 mph63%29.82 "Hg10 mi
1:53 pm83 °FSunny.14 mph63%29.84 "Hg10 mi
12:53 pm80 °FOvercast.9 mph74%29.87 "Hg10 mi
11:53 am78 °FOvercast.8 mph79%29.89 "Hg10 mi
10:53 am77 °FOvercast.9 mph82%29.89 "Hg10 mi
10:14 am75 °FLow clouds.7 mph88%29.90 "Hg10 mi
9:53 am74 °FMostly cloudy.8 mph91%29.89 "Hg9 mi
8:53 am74 °FPartly sunny.8 mph88%29.89 "Hg8 mi
7:53 am73 °FFog.7 mph90%29.88 "Hg6 mi
6:53 am72 °FLow clouds.7 mph93%29.89 "Hg8 mi
5:53 am72 °FFog.8 mph93%29.88 "Hg6 mi
Weather by CustomWeather, © 2019

See weather overview